User: anonymous   Login
Location: Unspecified
(0.0000°N, 0.0000°E)
Time: 13:14:50
(UTC+01:00)
Language:

ATLAS V CENTAUR R/B - Orbit

View from above orbital plane
View from above orbital plane
View from above satellite
View from above satellite

Ground track
Ground track

The orbit data is extracted from the following two-line orbital elements,

1 27500U 02038B   14352.61030266  .00012115  00000-0  23832-2 0   481
2 27500 017.7969 178.3936 6929308 148.5574 283.6728 02.73952762 99820
Epoch (UTC): 18 December 2014 14:38:50
Eccentricity: 0.6929308
inclination: 17.7969°
perigee height: 247 km
apogee height: 30146 km
right ascension of ascending node: 178.3936°
argument of perigee: 148.5574°
revolutions per day: 2.73952762
mean anomaly at epoch: 283.6728°
orbit number at epoch: 9982

The dashed part of the orbit path shows where the satellite is in the earth's shadow,  

DLR